Find OneWeb SL0296

NORAD ID: 49085 Int'l Des: 2021-075 Owner: ONEWEBN Country: UK Constellation: oneweb operational
LEOCIRCULARPOLARONEWEB_TYPE

Live Position

Loading 3D Globe...

About OneWeb SL0296

Description loading...

Upcoming Passes

Passes for default location (London). Set your location on the main map for personalized predictions.

Altitude History

Loading altitude history...

Two-Line Element Set

1 49085U 21075L 26124.62626069 .00000201 00000-0 52311-3 0 9991
2 49085 87.8989 359.3228 0001463 89.5230 270.6067 13.12444014228868
Epoch: May 4, 2026 • Age: 13 hours

Current Status

Altitude 1236.8 km
Velocity 7.24 km/s
Sub-Earth Point -57.06°S, 79.74°E
Launch Date Aug 21, 2021
Age 4.7 years
Type internet

Technical Details

Classification Payload
Mass 148.00 kg
Dry Mass 140.00 kg
Total Mass 148.00 kg
Length 1.30 m
Diameter 1.00 m
Span 5.00 m
Shape Trapezoid+2 pan
Manufacturer ONEWUS
Bus Type ARROW
Phase Status In Orbit
Owner/State ONEWEBN/UK

Most Searched